owner,sensor,date,latitude,longitude,vertical_datum,mass_concentration_of_oxygen_in_sea_water,qcFlag 
DISL,ioos:station:DISL:PPTA:1,2013-06-01T00:00:00Z,30.2791,-87.5561,1.416,7.59,1111122 
DISL,ioos:station:DISL:PPTA:1,2013-06-01T00:30:00Z,30.2791,-87.5561,1.404,7.33,1111122 
DISL,ioos:station:DISL:PPTA:1,2013-06-01T01:00:00Z,30.2791,-87.5561,1.41,7.18,1111122 
DISL,ioos:station:DISL:PPTA:1,2013-06-01T01:30:00Z,30.2791,-87.5561,1.401,7.22,1111122 
DISL,ioos:station:DISL:PPTA:1,2013-06-01T02:00:00Z,30.2791,-87.5561,1.394,6.77,1111122 
DISL,ioos:station:DISL:PPTA:1,2013-06-01T02:30:00Z,30.2791,-87.5561,1.382,6.91,1111122 
DISL,ioos:station:DISL:PPTA:1,2013-06-01T03:00:00Z,30.2791,-87.5561,1.385,7.15,1111122 
DISL,ioos:station:DISL:PPTA:1,2013-06-01T03:30:00Z,30.2791,-87.5561,1.37,6.87,1111122 
DISL,ioos:station:DISL:PPTA:1,2013-06-01T04:00:00Z,30.2791,-87.5561,1.376,6.92,1111122 
DISL,ioos:station:DISL:PPTA:1,2013-06-01T04:30:00Z,30.2791,-87.5561,1.386,6.94,1111122 
DISL,ioos:station:DISL:PPTA:1,2013-06-01T05:00:00Z,30.2791,-87.5561,1.369,6.61,1111122 
DISL,ioos:station:DISL:PPTA:1,2013-06-01T05:30:00Z,30.2791,-87.5561,1.376,6.68,1111122 
DISL,ioos:station:DISL:PPTA:1,2013-06-01T06:00:00Z,30.2791,-87.5561,1.393,6.3,1111122 
DISL,ioos:station:DISL:PPTA:1,2013-06-01T06:30:00Z,30.2791,-87.5561,1.404,6.0,1111122 
DISL,ioos:station:DISL:PPTA:1,2013-06-01T07:00:00Z,30.2791,-87.5561,1.362,5.99,1111122 
DISL,ioos:station:DISL:PPTA:1,2013-06-01T07:30:00Z,30.2791,-87.5561,1.37,6.02,1111122 
DISL,ioos:station:DISL:PPTA:1,2013-06-01T08:00:00Z,30.2791,-87.5561,1.391,5.9,1111122 
DISL,ioos:station:DISL:PPTA:1,2013-06-01T08:30:00Z,30.2791,-87.5561,1.376,6.09,1111122 
DISL,ioos:station:DISL:PPTA:1,2013-06-01T09:00:00Z,30.2791,-87.5561,1.37,5.7,1111122 
DISL,ioos:station:DISL:PPTA:1,2013-06-01T09:30:00Z,30.2791,-87.5561,1.381,4.9,1111122 
DISL,ioos:station:DISL:PPTA:1,2013-06-01T10:00:00Z,30.2791,-87.5561,1.375,5.77,1111122 
DISL,ioos:station:DISL:PPTA:1,2013-06-01T10:30:00Z,30.2791,-87.5561,1.392,5.43,1111122 
DISL,ioos:station:DISL:PPTA:1,2013-06-01T11:00:00Z,30.2791,-87.5561,1.411,6.05,1111122 
DISL,ioos:station:DISL:PPTA:1,2013-06-01T11:30:00Z,30.2791,-87.5561,1.419,5.86,1111122 
DISL,ioos:station:DISL:PPTA:1,2013-06-01T12:00:00Z,30.2791,-87.5561,1.435,6.09,1111122 
DISL,ioos:station:DISL:PPTA:1,2013-06-01T12:30:00Z,30.2791,-87.5561,1.424,6.02,1111122 
DISL,ioos:station:DISL:PPTA:1,2013-06-01T13:00:00Z,30.2791,-87.5561,1.417,5.98,1111122 
DISL,ioos:station:DISL:PPTA:1,2013-06-01T13:30:00Z,30.2791,-87.5561,1.427,5.72,1111122 
DISL,ioos:station:DISL:PPTA:1,2013-06-01T14:00:00Z,30.2791,-87.5561,1.419,5.92,1111122 
DISL,ioos:station:DISL:PPTA:1,2013-06-01T14:30:00Z,30.2791,-87.5561,1.424,5.88,1111122 
DISL,ioos:station:DISL:PPTA:1,2013-06-01T15:00:00Z,30.2791,-87.5561,1.409,5.93,1111122 
DISL,ioos:station:DISL:PPTA:1,2013-06-01T15:30:00Z,30.2791,-87.5561,1.42,6.11,1111122 
DISL,ioos:station:DISL:PPTA:1,2013-06-01T16:00:00Z,30.2791,-87.5561,1.401,6.22,1111122 
DISL,ioos:station:DISL:PPTA:1,2013-06-01T16:30:00Z,30.2791,-87.5561,1.406,6.27,1111122 
DISL,ioos:station:DISL:PPTA:1,2013-06-01T17:00:00Z,30.2791,-87.5561,1.417,6.4,1111122 
DISL,ioos:station:DISL:PPTA:1,2013-06-01T17:30:00Z,30.2791,-87.5561,1.404,6.8,1111122 
DISL,ioos:station:DISL:PPTA:1,2013-06-01T18:00:00Z,30.2791,-87.5561,1.41,6.78,1111122 
DISL,ioos:station:DISL:PPTA:1,2013-06-01T18:30:00Z,30.2791,-87.5561,1.402,6.67,1111122 
DISL,ioos:station:DISL:PPTA:1,2013-06-01T19:00:00Z,30.2791,-87.5561,1.396,6.68,1111122 
DISL,ioos:station:DISL:PPTA:1,2013-06-01T19:30:00Z,30.2791,-87.5561,1.386,6.94,1111122 
DISL,ioos:station:DISL:PPTA:1,2013-06-01T20:00:00Z,30.2791,-87.5561,1.384,7.02,1111122 
DISL,ioos:station:DISL:PPTA:1,2013-06-01T20:30:00Z,30.2791,-87.5561,1.381,6.98,1111122 
DISL,ioos:station:DISL:PPTA:1,2013-06-01T21:00:00Z,30.2791,-87.5561,1.367,6.98,1111122 
DISL,ioos:station:DISL:PPTA:1,2013-06-01T21:30:00Z,30.2791,-87.5561,1.351,6.86,1111122 
DISL,ioos:station:DISL:PPTA:1,2013-06-01T22:00:00Z,30.2791,-87.5561,1.359,7.14,1111122 
DISL,ioos:station:DISL:PPTA:1,2013-06-01T22:30:00Z,30.2791,-87.5561,1.353,7.13,1111122 
DISL,ioos:station:DISL:PPTA:1,2013-06-01T23:00:00Z,30.2791,-87.5561,1.359,7.1,1111122 
DISL,ioos:station:DISL:PPTA:1,2013-06-01T23:30:00Z,30.2791,-87.5561,1.359,6.78,1111122 
DISL,ioos:station:DISL:PPTA:1,2013-06-02T00:00:00Z,30.2791,-87.5561,1.356,6.52,1111122 
DISL,ioos:station:DISL:PPTA:1,2013-06-02T00:30:00Z,30.2791,-87.5561,1.34,6.58,1111122 
DISL,ioos:station:DISL:PPTA:1,2013-06-02T01:00:00Z,30.2791,-87.5561,1.34,6.72,1111122 
DISL,ioos:station:DISL:PPTA:1,2013-06-02T01:30:00Z,30.2791,-87.5561,1.328,6.56,1111122 
DISL,ioos:station:DISL:PPTA:1,2013-06-02T02:00:00Z,30.2791,-87.5561,1.337,6.3,1111122 
DISL,ioos:station:DISL:PPTA:1,2013-06-02T02:30:00Z,30.2791,-87.5561,1.318,6.1,1111122 
DISL,ioos:station:DISL:PPTA:1,2013-06-02T03:00:00Z,30.2791,-87.5561,1.31,5.83,1111122 
DISL,ioos:station:DISL:PPTA:1,2013-06-02T03:30:00Z,30.2791,-87.5561,1.317,6.24,1111122 
DISL,ioos:station:DISL:PPTA:1,2013-06-02T04:00:00Z,30.2791,-87.5561,1.314,5.81,1111122 
DISL,ioos:station:DISL:PPTA:1,2013-06-02T04:30:00Z,30.2791,-87.5561,1.321,5.73,1111122 
DISL,ioos:station:DISL:PPTA:1,2013-06-02T05:00:00Z,30.2791,-87.5561,1.31,6.01,1111122 
DISL,ioos:station:DISL:PPTA:1,2013-06-02T05:30:00Z,30.2791,-87.5561,1.315,5.82,1111122 
DISL,ioos:station:DISL:PPTA:1,2013-06-02T06:00:00Z,30.2791,-87.5561,1.308,5.61,1111122 
DISL,ioos:station:DISL:PPTA:1,2013-06-02T06:30:00Z,30.2791,-87.5561,1.304,5.61,1111122 
DISL,ioos:station:DISL:PPTA:1,2013-06-02T07:00:00Z,30.2791,-87.5561,1.325,5.33,1111122 
DISL,ioos:station:DISL:PPTA:1,2013-06-02T07:30:00Z,30.2791,-87.5561,1.317,4.98,1111122 
DISL,ioos:station:DISL:PPTA:1,2013-06-02T08:00:00Z,30.2791,-87.5561,1.309,5.15,1111122 
DISL,ioos:station:DISL:PPTA:1,2013-06-02T08:30:00Z,30.2791,-87.5561,1.314,5.11,1111122 
DISL,ioos:station:DISL:PPTA:1,2013-06-02T09:00:00Z,30.2791,-87.5561,1.346,5.41,1111122 
DISL,ioos:station:DISL:PPTA:1,2013-06-02T09:30:00Z,30.2791,-87.5561,1.342,5.65,1111122 
DISL,ioos:station:DISL:PPTA:1,2013-06-02T10:00:00Z,30.2791,-87.5561,1.301,5.34,1111122 
DISL,ioos:station:DISL:PPTA:1,2013-06-02T10:30:00Z,30.2791,-87.5561,1.333,5.32,1111122 
DISL,ioos:station:DISL:PPTA:1,2013-06-02T11:00:00Z,30.2791,-87.5561,1.341,5.88,1111122 
DISL,ioos:station:DISL:PPTA:1,2013-06-02T11:30:00Z,30.2791,-87.5561,1.332,5.53,1111122 
DISL,ioos:station:DISL:PPTA:1,2013-06-02T12:00:00Z,30.2791,-87.5561,1.356,5.7,1111122 
DISL,ioos:station:DISL:PPTA:1,2013-06-02T12:30:00Z,30.2791,-87.5561,1.342,5.79,1111122 
DISL,ioos:station:DISL:PPTA:1,2013-06-02T13:00:00Z,30.2791,-87.5561,1.328,5.65,1111122 
DISL,ioos:station:DISL:PPTA:1,2013-06-02T13:30:00Z,30.2791,-87.5561,1.343,5.64,1111122 
DISL,ioos:station:DISL:PPTA:1,2013-06-02T14:00:00Z,30.2791,-87.5561,1.332,5.81,1111122 
DISL,ioos:station:DISL:PPTA:1,2013-06-02T14:30:00Z,30.2791,-87.5561,1.324,5.97,1111122 
DISL,ioos:station:DISL:PPTA:1,2013-06-02T15:00:00Z,30.2791,-87.5561,1.329,6.38,1111122 
DISL,ioos:station:DISL:PPTA:1,2013-06-02T15:30:00Z,30.2791,-87.5561,1.304,6.36,1111122 
DISL,ioos:station:DISL:PPTA:1,2013-06-02T16:00:00Z,30.2791,-87.5561,1.264,6.44,1111122 
DISL,ioos:station:DISL:PPTA:1,2013-06-02T16:30:00Z,30.2791,-87.5561,1.279,6.42,1111122 
DISL,ioos:station:DISL:PPTA:1,2013-06-02T17:00:00Z,30.2791,-87.5561,1.301,6.15,1111122 
DISL,ioos:station:DISL:PPTA:1,2013-06-02T17:30:00Z,30.2791,-87.5561,1.283,6.51,1111122 
DISL,ioos:station:DISL:PPTA:1,2013-06-02T18:00:00Z,30.2791,-87.5561,1.29,6.82,1111122 
DISL,ioos:station:DISL:PPTA:1,2013-06-02T18:30:00Z,30.2791,-87.5561,1.285,6.7,1111122 
DISL,ioos:station:DISL:PPTA:1,2013-06-02T19:00:00Z,30.2791,-87.5561,1.246,6.77,1111122 
DISL,ioos:station:DISL:PPTA:1,2013-06-02T19:30:00Z,30.2791,-87.5561,1.256,6.65,1111122 
DISL,ioos:station:DISL:PPTA:1,2013-06-02T20:00:00Z,30.2791,-87.5561,1.24,6.25,1111122 
DISL,ioos:station:DISL:PPTA:1,2013-06-02T20:30:00Z,30.2791,-87.5561,1.245,6.77,1111122 
DISL,ioos:station:DISL:PPTA:1,2013-06-02T21:00:00Z,30.2791,-87.5561,1.246,6.89,1111122 
DISL,ioos:station:DISL:PPTA:1,2013-06-02T21:30:00Z,30.2791,-87.5561,1.223,6.76,1111122 
DISL,ioos:station:DISL:PPTA:1,2013-06-02T22:00:00Z,30.2791,-87.5561,1.229,7.05,1111122 
DISL,ioos:station:DISL:PPTA:1,2013-06-02T22:30:00Z,30.2791,-87.5561,1.22,6.71,1111122 
DISL,ioos:station:DISL:PPTA:1,2013-06-02T23:00:00Z,30.2791,-87.5561,1.231,6.77,1111122 
DISL,ioos:station:DISL:PPTA:1,2013-06-02T23:30:00Z,30.2791,-87.5561,1.227,6.92,1111122 
DISL,ioos:station:DISL:PPTA:1,2013-06-03T00:00:00Z,30.2791,-87.5561,1.204,6.48,1111122 
DISL,ioos:station:DISL:PPTA:1,2013-06-03T00:30:00Z,30.2791,-87.5561,1.235,6.57,1111122 
DISL,ioos:station:DISL:PPTA:1,2013-06-03T01:00:00Z,30.2791,-87.5561,1.237,6.17,1111122 
DISL,ioos:station:DISL:PPTA:1,2013-06-03T01:30:00Z,30.2791,-87.5561,1.253,6.15,1111122 
DISL,ioos:station:DISL:PPTA:1,2013-06-03T02:00:00Z,30.2791,-87.5561,1.233,6.34,1111122 
DISL,ioos:station:DISL:PPTA:1,2013-06-03T02:30:00Z,30.2791,-87.5561,1.253,5.88,1111122 
DISL,ioos:station:DISL:PPTA:1,2013-06-03T03:00:00Z,30.2791,-87.5561,1.26,5.79,1111122 
DISL,ioos:station:DISL:PPTA:1,2013-06-03T03:30:00Z,30.2791,-87.5561,1.26,5.81,1111122 
DISL,ioos:station:DISL:PPTA:1,2013-06-03T04:00:00Z,30.2791,-87.5561,1.262,5.67,1111122 
DISL,ioos:station:DISL:PPTA:1,2013-06-03T04:30:00Z,30.2791,-87.5561,1.246,5.86,1111122 
DISL,ioos:station:DISL:PPTA:1,2013-06-03T05:00:00Z,30.2791,-87.5561,1.268,5.79,1111122 
DISL,ioos:station:DISL:PPTA:1,2013-06-03T05:30:00Z,30.2791,-87.5561,1.252,5.4,1111122 
DISL,ioos:station:DISL:PPTA:1,2013-06-03T06:00:00Z,30.2791,-87.5561,1.263,5.54,1111122 
DISL,ioos:station:DISL:PPTA:1,2013-06-03T06:30:00Z,30.2791,-87.5561,1.298,5.73,1111122 
DISL,ioos:station:DISL:PPTA:1,2013-06-03T07:00:00Z,30.2791,-87.5561,1.307,5.17,1111122 
DISL,ioos:station:DISL:PPTA:1,2013-06-03T07:30:00Z,30.2791,-87.5561,1.317,5.31,1111122 
DISL,ioos:station:DISL:PPTA:1,2013-06-03T08:00:00Z,30.2791,-87.5561,1.333,5.47,1111122 
DISL,ioos:station:DISL:PPTA:1,2013-06-03T08:30:00Z,30.2791,-87.5561,1.324,5.7,1111122 
DISL,ioos:station:DISL:PPTA:1,2013-06-03T09:00:00Z,30.2791,-87.5561,1.35,5.64,1111122 
DISL,ioos:station:DISL:PPTA:1,2013-06-03T09:30:00Z,30.2791,-87.5561,1.363,5.44,1111122 
DISL,ioos:station:DISL:PPTA:1,2013-06-03T10:00:00Z,30.2791,-87.5561,1.344,5.66,1111122 
DISL,ioos:station:DISL:PPTA:1,2013-06-03T10:30:00Z,30.2791,-87.5561,1.333,5.27,1111122 
DISL,ioos:station:DISL:PPTA:1,2013-06-03T11:00:00Z,30.2791,-87.5561,1.339,5.47,1111122 
DISL,ioos:station:DISL:PPTA:1,2013-06-03T11:30:00Z,30.2791,-87.5561,1.355,5.24,1111122 
DISL,ioos:station:DISL:PPTA:1,2013-06-03T12:00:00Z,30.2791,-87.5561,1.364,5.25,1111122 
DISL,ioos:station:DISL:PPTA:1,2013-06-03T12:30:00Z,30.2791,-87.5561,1.37,5.08,1111122 
DISL,ioos:station:DISL:PPTA:1,2013-06-03T13:00:00Z,30.2791,-87.5561,1.378,5.32,1111122 
DISL,ioos:station:DISL:PPTA:1,2013-06-03T13:30:00Z,30.2791,-87.5561,1.37,5.41,1111122 
DISL,ioos:station:DISL:PPTA:1,2013-06-03T14:00:00Z,30.2791,-87.5561,1.359,5.35,1111122 
DISL,ioos:station:DISL:PPTA:1,2013-06-03T14:30:00Z,30.2791,-87.5561,1.334,5.58,1111122 
DISL,ioos:station:DISL:PPTA:1,2013-06-03T15:00:00Z,30.2791,-87.5561,1.288,5.47,1111122 
DISL,ioos:station:DISL:PPTA:1,2013-06-03T15:30:00Z,30.2791,-87.5561,1.308,5.94,1111122 
DISL,ioos:station:DISL:PPTA:1,2013-06-03T16:00:00Z,30.2791,-87.5561,1.292,5.87,1111122 
DISL,ioos:station:DISL:PPTA:1,2013-06-03T16:30:00Z,30.2791,-87.5561,1.279,5.78,1111122 
DISL,ioos:station:DISL:PPTA:1,2013-06-03T17:00:00Z,30.2791,-87.5561,1.278,6.29,1111122 
DISL,ioos:station:DISL:PPTA:1,2013-06-03T17:30:00Z,30.2791,-87.5561,1.278,6.37,1111122 
DISL,ioos:station:DISL:PPTA:1,2013-06-03T18:00:00Z,30.2791,-87.5561,1.267,6.45,1111122 
DISL,ioos:station:DISL:PPTA:1,2013-06-03T18:30:00Z,30.2791,-87.5561,1.266,6.6,1111122 
DISL,ioos:station:DISL:PPTA:1,2013-06-03T19:00:00Z,30.2791,-87.5561,1.228,6.47,1111122 
DISL,ioos:station:DISL:PPTA:1,2013-06-03T19:30:00Z,30.2791,-87.5561,1.228,6.58,1111122 
DISL,ioos:station:DISL:PPTA:1,2013-06-03T20:00:00Z,30.2791,-87.5561,1.214,6.45,1111122 
DISL,ioos:station:DISL:PPTA:1,2013-06-03T20:30:00Z,30.2791,-87.5561,1.195,6.76,1111122 
DISL,ioos:station:DISL:PPTA:1,2013-06-03T21:00:00Z,30.2791,-87.5561,1.177,6.76,1111122 
DISL,ioos:station:DISL:PPTA:1,2013-06-03T21:30:00Z,30.2791,-87.5561,1.171,6.99,1111122 
DISL,ioos:station:DISL:PPTA:1,2013-06-03T22:00:00Z,30.2791,-87.5561,1.175,6.51,1111122 
DISL,ioos:station:DISL:PPTA:1,2013-06-03T22:30:00Z,30.2791,-87.5561,1.163,6.77,1111122 
DISL,ioos:station:DISL:PPTA:1,2013-06-03T23:00:00Z,30.2791,-87.5561,1.161,6.74,1111122 
DISL,ioos:station:DISL:PPTA:1,2013-06-03T23:30:00Z,30.2791,-87.5561,1.175,6.84,1111122 
DISL,ioos:station:DISL:PPTA:1,2013-06-04T00:00:00Z,30.2791,-87.5561,1.149,6.78,1111122 
DISL,ioos:station:DISL:PPTA:1,2013-06-04T00:30:00Z,30.2791,-87.5561,1.155,6.44,1111122 
DISL,ioos:station:DISL:PPTA:1,2013-06-04T01:00:00Z,30.2791,-87.5561,1.171,6.66,1111122 
DISL,ioos:station:DISL:PPTA:1,2013-06-04T01:30:00Z,30.2791,-87.5561,1.158,6.25,1111122 
DISL,ioos:station:DISL:PPTA:1,2013-06-04T02:00:00Z,30.2791,-87.5561,1.17,5.87,1111122 
DISL,ioos:station:DISL:PPTA:1,2013-06-04T02:30:00Z,30.2791,-87.5561,1.168,5.95,1111122 
DISL,ioos:station:DISL:PPTA:1,2013-06-04T03:00:00Z,30.2791,-87.5561,1.193,5.8,1111122 
DISL,ioos:station:DISL:PPTA:1,2013-06-04T03:30:00Z,30.2791,-87.5561,1.171,5.52,1111122 
DISL,ioos:station:DISL:PPTA:1,2013-06-04T04:00:00Z,30.2791,-87.5561,1.183,5.57,1111122 
DISL,ioos:station:DISL:PPTA:1,2013-06-04T04:30:00Z,30.2791,-87.5561,1.178,4.97,1111122 
DISL,ioos:station:DISL:PPTA:1,2013-06-04T05:00:00Z,30.2791,-87.5561,1.199,5.54,1111122 
DISL,ioos:station:DISL:PPTA:1,2013-06-04T05:30:00Z,30.2791,-87.5561,1.202,5.36,1111122 
DISL,ioos:station:DISL:PPTA:1,2013-06-04T06:00:00Z,30.2791,-87.5561,1.216,5.38,1111122 
DISL,ioos:station:DISL:PPTA:1,2013-06-04T06:30:00Z,30.2791,-87.5561,1.233,5.16,1111122 
DISL,ioos:station:DISL:PPTA:1,2013-06-04T07:00:00Z,30.2791,-87.5561,1.245,5.39,1111122 
DISL,ioos:station:DISL:PPTA:1,2013-06-04T07:30:00Z,30.2791,-87.5561,1.258,5.27,1111122 
DISL,ioos:station:DISL:PPTA:1,2013-06-04T08:00:00Z,30.2791,-87.5561,1.287,4.83,1111122 
DISL,ioos:station:DISL:PPTA:1,2013-06-04T08:30:00Z,30.2791,-87.5561,1.306,5.31,1111122 
DISL,ioos:station:DISL:PPTA:1,2013-06-04T09:00:00Z,30.2791,-87.5561,1.314,5.21,1111122 
DISL,ioos:station:DISL:PPTA:1,2013-06-04T09:30:00Z,30.2791,-87.5561,1.327,5.32,1111122 
DISL,ioos:station:DISL:PPTA:1,2013-06-04T10:00:00Z,30.2791,-87.5561,1.332,5.19,1111122 
DISL,ioos:station:DISL:PPTA:1,2013-06-04T10:30:00Z,30.2791,-87.5561,1.347,5.21,1111122 
DISL,ioos:station:DISL:PPTA:1,2013-06-04T11:00:00Z,30.2791,-87.5561,1.355,5.2,1111122 
DISL,ioos:station:DISL:PPTA:1,2013-06-04T11:30:00Z,30.2791,-87.5561,1.373,5.08,1111122 
DISL,ioos:station:DISL:PPTA:1,2013-06-04T12:00:00Z,30.2791,-87.5561,1.379,4.88,1111122 
DISL,ioos:station:DISL:PPTA:1,2013-06-04T12:30:00Z,30.2791,-87.5561,1.381,5.17,1111122 
DISL,ioos:station:DISL:PPTA:1,2013-06-04T13:00:00Z,30.2791,-87.5561,1.382,5.08,1111122 
DISL,ioos:station:DISL:PPTA:1,2013-06-04T13:30:00Z,30.2791,-87.5561,1.382,5.12,1111122 
DISL,ioos:station:DISL:PPTA:1,2013-06-04T14:00:00Z,30.2791,-87.5561,1.382,4.89,1111122 
DISL,ioos:station:DISL:PPTA:1,2013-06-04T14:30:00Z,30.2791,-87.5561,1.37,5.75,1111122 
DISL,ioos:station:DISL:PPTA:1,2013-06-04T15:00:00Z,30.2791,-87.5561,1.354,5.4,1111122 
DISL,ioos:station:DISL:PPTA:1,2013-06-04T15:30:00Z,30.2791,-87.5561,1.35,6.02,1111122 
DISL,ioos:station:DISL:PPTA:1,2013-06-04T16:00:00Z,30.2791,-87.5561,1.338,5.78,1111122 
DISL,ioos:station:DISL:PPTA:1,2013-06-04T16:30:00Z,30.2791,-87.5561,1.327,6.11,1111122 
DISL,ioos:station:DISL:PPTA:1,2013-06-04T17:00:00Z,30.2791,-87.5561,1.319,6.41,1111122 
DISL,ioos:station:DISL:PPTA:1,2013-06-04T17:30:00Z,30.2791,-87.5561,1.301,6.43,1111122 
DISL,ioos:station:DISL:PPTA:1,2013-06-04T18:00:00Z,30.2791,-87.5561,1.269,6.71,1111122 
DISL,ioos:station:DISL:PPTA:1,2013-06-04T18:30:00Z,30.2791,-87.5561,1.262,6.39,1111122 
DISL,ioos:station:DISL:PPTA:1,2013-06-04T19:00:00Z,30.2791,-87.5561,1.25,6.8,1111122 
DISL,ioos:station:DISL:PPTA:1,2013-06-04T19:30:00Z,30.2791,-87.5561,1.224,7.07,1111122 
DISL,ioos:station:DISL:PPTA:1,2013-06-04T20:00:00Z,30.2791,-87.5561,1.211,7.02,1111122 
DISL,ioos:station:DISL:PPTA:1,2013-06-04T20:30:00Z,30.2791,-87.5561,1.21,6.97,1111122 
DISL,ioos:station:DISL:PPTA:1,2013-06-04T21:00:00Z,30.2791,-87.5561,1.202,7.04,1111122 
DISL,ioos:station:DISL:PPTA:1,2013-06-04T21:30:00Z,30.2791,-87.5561,1.19,6.83,1111122 
DISL,ioos:station:DISL:PPTA:1,2013-06-04T22:00:00Z,30.2791,-87.5561,1.198,6.55,1111122 
DISL,ioos:station:DISL:PPTA:1,2013-06-04T22:30:00Z,30.2791,-87.5561,1.175,7.02,1111122 
DISL,ioos:station:DISL:PPTA:1,2013-06-04T23:00:00Z,30.2791,-87.5561,1.175,6.88,1111122 
DISL,ioos:station:DISL:PPTA:1,2013-06-04T23:30:00Z,30.2791,-87.5561,1.163,6.69,1111122 
DISL,ioos:station:DISL:PPTA:1,2013-06-05T00:00:00Z,30.2791,-87.5561,1.159,6.77,1111122 
DISL,ioos:station:DISL:PPTA:1,2013-06-05T00:30:00Z,30.2791,-87.5561,1.151,6.46,1111122 
DISL,ioos:station:DISL:PPTA:1,2013-06-05T01:00:00Z,30.2791,-87.5561,1.161,6.78,1111122 
DISL,ioos:station:DISL:PPTA:1,2013-06-05T01:30:00Z,30.2791,-87.5561,1.187,6.27,1111122 
DISL,ioos:station:DISL:PPTA:1,2013-06-05T02:00:00Z,30.2791,-87.5561,1.191,6.07,1111122 
DISL,ioos:station:DISL:PPTA:1,2013-06-05T02:30:00Z,30.2791,-87.5561,1.177,5.94,1111122 
DISL,ioos:station:DISL:PPTA:1,2013-06-05T03:00:00Z,30.2791,-87.5561,1.178,6.14,1111122 
DISL,ioos:station:DISL:PPTA:1,2013-06-05T03:30:00Z,30.2791,-87.5561,1.177,6.01,1111122 
DISL,ioos:station:DISL:PPTA:1,2013-06-05T04:00:00Z,30.2791,-87.5561,1.198,5.74,1111122 
DISL,ioos:station:DISL:PPTA:1,2013-06-05T04:30:00Z,30.2791,-87.5561,1.215,5.64,1111122 
DISL,ioos:station:DISL:PPTA:1,2013-06-05T05:00:00Z,30.2791,-87.5561,1.218,5.88,1111122 
DISL,ioos:station:DISL:PPTA:1,2013-06-05T05:30:00Z,30.2791,-87.5561,1.216,5.81,1111122 
DISL,ioos:station:DISL:PPTA:1,2013-06-05T06:00:00Z,30.2791,-87.5561,1.218,5.75,1111122 
DISL,ioos:station:DISL:PPTA:1,2013-06-05T06:30:00Z,30.2791,-87.5561,1.235,5.9,1111122 
DISL,ioos:station:DISL:PPTA:1,2013-06-05T07:00:00Z,30.2791,-87.5561,1.25,5.86,1111122 
DISL,ioos:station:DISL:PPTA:1,2013-06-05T07:30:00Z,30.2791,-87.5561,1.27,5.74,1111122 
DISL,ioos:station:DISL:PPTA:1,2013-06-05T08:00:00Z,30.2791,-87.5561,1.289,5.5,1111122 
DISL,ioos:station:DISL:PPTA:1,2013-06-05T08:30:00Z,30.2791,-87.5561,1.324,5.28,1111122 
DISL,ioos:station:DISL:PPTA:1,2013-06-05T09:00:00Z,30.2791,-87.5561,1.339,5.71,1111122 
DISL,ioos:station:DISL:PPTA:1,2013-06-05T09:30:00Z,30.2791,-87.5561,1.361,5.37,1111122 
DISL,ioos:station:DISL:PPTA:1,2013-06-05T10:00:00Z,30.2791,-87.5561,1.372,5.66,1111122 
DISL,ioos:station:DISL:PPTA:1,2013-06-05T10:30:00Z,30.2791,-87.5561,1.387,5.42,1111122 
DISL,ioos:station:DISL:PPTA:1,2013-06-05T11:00:00Z,30.2791,-87.5561,1.405,5.21,1111122 
DISL,ioos:station:DISL:PPTA:1,2013-06-05T11:30:00Z,30.2791,-87.5561,1.422,5.64,1111122 
DISL,ioos:station:DISL:PPTA:1,2013-06-05T12:00:00Z,30.2791,-87.5561,1.425,5.33,1111122 
DISL,ioos:station:DISL:PPTA:1,2013-06-05T12:30:00Z,30.2791,-87.5561,1.426,5.23,1111122 
DISL,ioos:station:DISL:PPTA:1,2013-06-05T13:00:00Z,30.2791,-87.5561,1.418,5.32,1111122 
DISL,ioos:station:DISL:PPTA:1,2013-06-05T13:30:00Z,30.2791,-87.5561,1.439,5.84,1111122 
DISL,ioos:station:DISL:PPTA:1,2013-06-05T14:00:00Z,30.2791,-87.5561,1.454,5.37,1111122 
DISL,ioos:station:DISL:PPTA:1,2013-06-05T14:30:00Z,30.2791,-87.5561,1.436,6.27,1111122 
DISL,ioos:station:DISL:PPTA:1,2013-06-05T15:00:00Z,30.2791,-87.5561,1.457,6.29,1111122 
DISL,ioos:station:DISL:PPTA:1,2013-06-05T15:30:00Z,30.2791,-87.5561,1.429,6.21,1111122 
DISL,ioos:station:DISL:PPTA:1,2013-06-05T16:00:00Z,30.2791,-87.5561,1.421,6.78,1111122 
DISL,ioos:station:DISL:PPTA:1,2013-06-05T16:30:00Z,30.2791,-87.5561,1.384,6.26,1111122 
DISL,ioos:station:DISL:PPTA:1,2013-06-05T17:00:00Z,30.2791,-87.5561,1.379,6.87,1111122 
DISL,ioos:station:DISL:PPTA:1,2013-06-05T17:30:00Z,30.2791,-87.5561,1.357,6.06,1111122 
DISL,ioos:station:DISL:PPTA:1,2013-06-05T18:00:00Z,30.2791,-87.5561,1.343,6.41,1111122 
DISL,ioos:station:DISL:PPTA:1,2013-06-05T18:30:00Z,30.2791,-87.5561,1.333,6.39,1111122 
DISL,ioos:station:DISL:PPTA:1,2013-06-05T19:00:00Z,30.2791,-87.5561,1.326,6.66,1111122 
DISL,ioos:station:DISL:PPTA:1,2013-06-05T19:30:00Z,30.2791,-87.5561,1.298,7.07,1111122 
DISL,ioos:station:DISL:PPTA:1,2013-06-05T20:00:00Z,30.2791,-87.5561,1.293,6.94,1111122 
DISL,ioos:station:DISL:PPTA:1,2013-06-05T20:30:00Z,30.2791,-87.5561,1.283,6.99,1111122 
DISL,ioos:station:DISL:PPTA:1,2013-06-05T21:00:00Z,30.2791,-87.5561,1.277,6.83,1111122 
DISL,ioos:station:DISL:PPTA:1,2013-06-05T21:30:00Z,30.2791,-87.5561,1.265,7.14,1111122 
DISL,ioos:station:DISL:PPTA:1,2013-06-05T22:00:00Z,30.2791,-87.5561,1.258,7.24,1111122 
DISL,ioos:station:DISL:PPTA:1,2013-06-05T22:30:00Z,30.2791,-87.5561,1.24,7.23,1111122 
DISL,ioos:station:DISL:PPTA:1,2013-06-05T23:00:00Z,30.2791,-87.5561,1.229,7.26,1111122 
DISL,ioos:station:DISL:PPTA:1,2013-06-05T23:30:00Z,30.2791,-87.5561,1.236,7.2,1111122 
DISL,ioos:station:DISL:PPTA:1,2013-06-06T00:00:00Z,30.2791,-87.5561,1.227,6.99,1111122 
DISL,ioos:station:DISL:PPTA:1,2013-06-06T00:30:00Z,30.2791,-87.5561,1.226,6.82,1111122 
DISL,ioos:station:DISL:PPTA:1,2013-06-06T01:00:00Z,30.2791,-87.5561,1.212,6.77,1111122 
DISL,ioos:station:DISL:PPTA:1,2013-06-06T01:30:00Z,30.2791,-87.5561,1.22,6.79,1111122 
DISL,ioos:station:DISL:PPTA:1,2013-06-06T02:00:00Z,30.2791,-87.5561,1.231,6.5,1111122 
DISL,ioos:station:DISL:PPTA:1,2013-06-06T02:30:00Z,30.2791,-87.5561,1.231,6.41,1111122 
DISL,ioos:station:DISL:PPTA:1,2013-06-06T03:00:00Z,30.2791,-87.5561,1.247,6.15,1111122 
DISL,ioos:station:DISL:PPTA:1,2013-06-06T03:30:00Z,30.2791,-87.5561,1.221,5.89,1111122 
DISL,ioos:station:DISL:PPTA:1,2013-06-06T04:00:00Z,30.2791,-87.5561,1.241,5.89,1111122 
DISL,ioos:station:DISL:PPTA:1,2013-06-06T04:30:00Z,30.2791,-87.5561,1.233,6.08,1111122 
DISL,ioos:station:DISL:PPTA:1,2013-06-06T05:00:00Z,30.2791,-87.5561,1.222,5.78,1111122 
DISL,ioos:station:DISL:PPTA:1,2013-06-06T05:30:00Z,30.2791,-87.5561,1.278,5.66,1111122 
DISL,ioos:station:DISL:PPTA:1,2013-06-06T06:00:00Z,30.2791,-87.5561,1.298,5.32,1111122 
DISL,ioos:station:DISL:PPTA:1,2013-06-06T06:30:00Z,30.2791,-87.5561,1.304,5.52,1111122 
DISL,ioos:station:DISL:PPTA:1,2013-06-06T07:00:00Z,30.2791,-87.5561,1.379,6.24,1111122 
DISL,ioos:station:DISL:PPTA:1,2013-06-06T07:30:00Z,30.2791,-87.5561,1.356,5.84,1111122 
DISL,ioos:station:DISL:PPTA:1,2013-06-06T08:00:00Z,30.2791,-87.5561,1.347,5.84,1111122 
DISL,ioos:station:DISL:PPTA:1,2013-06-06T08:30:00Z,30.2791,-87.5561,1.363,5.67,1111122 
DISL,ioos:station:DISL:PPTA:1,2013-06-06T09:00:00Z,30.2791,-87.5561,1.386,5.63,1111122 
DISL,ioos:station:DISL:PPTA:1,2013-06-06T09:30:00Z,30.2791,-87.5561,1.402,5.48,1111122 
DISL,ioos:station:DISL:PPTA:1,2013-06-06T10:00:00Z,30.2791,-87.5561,1.438,5.4,1111122 
DISL,ioos:station:DISL:PPTA:1,2013-06-06T10:30:00Z,30.2791,-87.5561,1.481,5.75,1111122 
DISL,ioos:station:DISL:PPTA:1,2013-06-06T11:00:00Z,30.2791,-87.5561,1.439,5.61,1111122 
DISL,ioos:station:DISL:PPTA:1,2013-06-06T11:30:00Z,30.2791,-87.5561,1.5,5.51,1111122 
DISL,ioos:station:DISL:PPTA:1,2013-06-06T12:00:00Z,30.2791,-87.5561,1.517,5.5,1111122 
DISL,ioos:station:DISL:PPTA:1,2013-06-06T12:30:00Z,30.2791,-87.5561,1.487,5.75,1111122 
DISL,ioos:station:DISL:PPTA:1,2013-06-06T13:00:00Z,30.2791,-87.5561,1.502,5.71,1111122 
DISL,ioos:station:DISL:PPTA:1,2013-06-06T13:30:00Z,30.2791,-87.5561,1.546,5.7,1111122 
DISL,ioos:station:DISL:PPTA:1,2013-06-06T14:00:00Z,30.2791,-87.5561,1.539,5.79,1111122 
DISL,ioos:station:DISL:PPTA:1,2013-06-06T14:30:00Z,30.2791,-87.5561,1.568,5.94,1111122 
DISL,ioos:station:DISL:PPTA:1,2013-06-06T15:00:00Z,30.2791,-87.5561,1.534,5.97,1111122 
DISL,ioos:station:DISL:PPTA:1,2013-06-06T15:30:00Z,30.2791,-87.5561,1.495,6.11,1111122 